Location: Baia Mare
(47.6567°N, 23.5850°E)
Time: 09:04:12
(UTC+03:00)

ISS - Pass Details

Date: 07 February 2016
Orbit: 411 x 421 km, 51.6° (Epoch: 14 October)

Event Time Altitude Azimuth Distance (km) Brightness Sun altitude
Rises 20:16:25 0° 293° (WNW) 2,378 1.2 -27.5°
Reaches altitude 10° 20:18:32 10° 293° (WNW) 1,510 0.0 -27.8°
Enters shadow 20:19:45 21° 291° (WNW) 1,023 -1.1 -28.0°
